This demonstration page uses our WeatherBlox Daily Observations layout. Learn more.

Left ArrowRight Arrow

39.29038, -76.61219

Hourly Observations for March 17, 2018

Temp ( °F °C ) Dew Point ( °F °C ) Humidity (%) Winds ( mph kmh ) Pressure ( in mb ) Visibility ( mi km ) Precip ( " mm )
12:54 am 00:54 undefined 34 1.1 14 -10 44 44 undefined N/A 30.04 1017 N/A 0.00 0.00
1:54 am 01:54 undefined 34 1.1 14 -10 44 44 undefined N/A 30.04 1017 N/A 0.00 0.00
2:54 am 02:54 undefined 33 0.6 14 -10 45 45 undefined N/A 30.04 1017 N/A 0.00 0.00
3:54 am 03:54 undefined 33 0.6 14 -10 45 45 undefined N/A 30.02 1017 N/A 0.00 0.00
4:54 am 04:54 undefined 34 1.1 14 -10 44 44 undefined N/A 30.01 1016 N/A 0.00 0.00
5:54 am 05:54 undefined 33 0.6 14 -10 45 45 undefined N/A 30.01 1016 N/A 0.00 0.00
6:54 am 06:54 undefined 33 0.6 14 -10 45 45 undefined N/A 30.01 1016 N/A 0.00 0.00
7:54 am 07:54 undefined 34 1.1 15 -9.4 46 46 undefined N/A 30.01 1016 N/A 0.00 0.00
8:54 am 08:54 undefined 36 2.2 15 -9.4 42 42 undefined N/A 30.01 1016 N/A 0.00 0.00
9:54 am 09:54 undefined 41 5 16 -8.9 36 36 undefined N/A 29.99 1016 N/A 0.00 0.00
10:54 am 10:54 undefined 44 6.7 12 -11.1 27 27 undefined N/A 29.97 1015 N/A 0.00 0.00
11:54 am 11:54 undefined 44 6.7 14 -10 30 30 undefined N/A 29.95 1014 N/A 0.00 0.00
12:54 pm 12:54 undefined 45 7.2 14 -10 29 29 undefined N/A 29.92 1013 N/A 0.00 0.00
1:54 pm 13:54 undefined 45 7.2 16 -8.9 31 31 undefined N/A 29.88 1012 N/A 0.00 0.00
2:54 pm 14:54 undefined 46 7.8 24 -4.4 42 42 undefined N/A 29.85 1011 N/A 0.00 0.00
3:54 pm 15:54 undefined 43 6.1 31 -0.6 63 63 undefined N/A 29.83 1010 N/A 0.00 0.00
4:54 pm 16:54 undefined 43 6.1 30 -1.1 60 60 undefined N/A 29.82 1010 N/A 0.00 0.00
5:54 pm 17:54 undefined 43 6.1 30 -1.1 60 60 undefined N/A 29.82 1010 N/A 0.00 0.00
6:54 pm 18:54 undefined 43 6.1 29 -1.7 58 58 undefined N/A 29.80 1009 N/A 0.00 0.00
7:54 pm 19:54 undefined 41 5 30 -1.1 65 65 undefined N/A 29.81 1010 N/A 0.00 0.00
8:54 pm 20:54 undefined 41 5 29 -1.7 62 62 undefined N/A 29.83 1010 N/A 0.00 0.00
9:54 pm 21:54 undefined 40 4.4 30 -1.1 68 68 undefined N/A 29.84 1011 N/A 0.00 0.00
10:54 pm 22:54 undefined 39 3.9 29 -1.7 67 67 undefined N/A 29.83 1010 N/A 0.00 0.00
11:54 pm 23:54 undefined 38 3.3 29 -1.7 70 70 undefined N/A 29.85 1011 N/A 0.00 0.00

Powered by AerisWeather